IT9NKT-WX Weather Reports


Display with metric or nautical units.
time (UTC)temp
F
wind
direction
speed
MPH
gust
MPH
rain 1hr
in
rain 24hr
in
rain mn
in
humidity
%
barometer
mb
20260901122503 92 120 2.0 9.0 0.00 0.00 0.00 45 1016.6
20260901122216 91 116 2.0 9.0 0.00 0.00 0.00 46 1016.5
20260901121504 91 82 2.0 8.0 0.00 0.00 0.00 47 1016.6
20260901121004 91 79 2.0 6.0 0.00 0.00 0.00 47 1016.7
20260901120503 91 102 2.0 5.0 0.00 0.00 0.00 49 1016.7
20260901120003 91 121 3.0 9.0 0.00 0.00 0.00 50 1016.6
20260901115503 92 100 3.0 9.0 0.00 0.00 0.00 50 1016.4
20260901115003 90 89 3.0 11.0 0.00 0.00 0.00 52 1016.8
20260901114503 90 109 4.0 11.0 0.00 0.00 0.00 56 1016.5
20260901114004 89 111 4.0 9.0 0.00 0.00 0.00 56 1016.6
20260901113504 90 99 3.0 8.0 0.00 0.00 0.00 59 1016.3
20260901113003 91 73 2.0 8.0 0.00 0.00 0.00 57 1016.4
20260901112503 91 77 2.0 9.0 0.00 0.00 0.00 57 1016.3
20260901112003 92 79 2.0 9.0 0.00 0.00 0.00 55 1016.3
20260901111504 91 98 2.0 8.0 0.00 0.00 0.00 57 1016.3
20260901111003 92 125 3.0 9.0 0.00 0.00 0.00 56 1016.2
20260901110504 90 110 3.0 9.0 0.00 0.00 0.00 59 1016.4
20260901110004 90 103 2.0 9.0 0.00 0.00 0.00 57 1016.5
20260901105503 90 100 3.0 9.0 0.00 0.00 0.00 59 1016.4
20260901105003 90 116 3.0 10.0 0.00 0.00 0.00 58 1016.6
20260901104503 92 157 3.0 10.0 0.00 0.00 0.00 56 1016.5
20260901104003 92 156 3.0 7.0 0.00 0.00 0.00 57 1016.5
20260901103503 92 151 3.0 7.0 0.00 0.00 0.00 57 1016.2
20260901103003 93 171 3.0 8.0 0.00 0.00 0.00 55 1016.6
20260901102504 92 189 4.0 8.0 0.00 0.00 0.00 56 1016.5
20260901102004 91 190 3.0 7.0 0.00 0.00 0.00 57 1016.5
20260901101503 91 187 2.0 8.0 0.00 0.00 0.00 57 1016.4
20260901101003 92 160 2.0 8.0 0.00 0.00 0.00 55 1016.7
20260901100504 91 128 2.0 7.0 0.00 0.00 0.00 57 1016.8
20260901100214 92 124 2.0 6.0 0.00 0.00 0.00 55 1016.9
20260901095717 91 137 2.0 7.0 0.00 0.00 0.00 59 1016.7
20260901095003 90 107 2.0 7.0 0.00 0.00 0.00 57 1016.9
20260901094504 91 147 2.0 6.0 0.00 0.00 0.00 57 1016.7
20260901094004 92 162 2.0 4.0 0.00 0.00 0.00 56 1016.7
20260901093503 90 155 2.0 4.0 0.00 0.00 0.00 57 1016.6
20260901093004 90 121 2.0 8.0 0.00 0.00 0.00 56 1017.0
20260901092503 89 101 2.0 8.0 0.00 0.00 0.00 58 1016.9
20260901092003 89 120 3.0 6.0 0.00 0.00 0.00 58 1017.1
20260901091716 89 119 3.0 9.0 0.00 0.00 0.00 58 1017.0
20260901091004 90 115 2.0 9.0 0.00 0.00 0.00 56 1016.9
20260901090503 88 95 2.0 4.0 0.00 0.00 0.00 58 1016.9
20260901090003 87 86 2.0 5.0 0.00 0.00 0.00 59 1016.9
20260901085503 89 68 2.0 8.0 0.00 0.00 0.00 56 1016.8
20260901085216 89 67 2.0 8.0 0.00 0.00 0.00 56 1016.7
20260901084503 90 152 1.0 4.0 0.00 0.00 0.00 48 1016.8
20260901084217 90 191 1.0 4.0 0.00 0.00 0.00 48 1016.8
20260901083505 90 187 2.0 4.0 0.00 0.00 0.00 47 1016.7
20260901083004 90 163 1.0 4.0 0.00 0.00 0.00 47 1016.8
20260901082503 90 106 1.0 3.0 0.00 0.00 0.00 46 1016.6
20260901082003 89 116 1.0 3.0 0.00 0.00 0.00 48 1016.8
20260901081716 89 112 1.0 4.0 0.00 0.00 0.00 48 1016.6
20260901081003 88 80 1.0 4.0 0.00 0.00 0.00 49 1016.6
20260901080503 88 137 1.0 3.0 0.00 0.00 0.00 48 1016.7
20260901080215 90 174 2.0 4.0 0.00 0.00 0.00 46 1016.4
20260901075504 89 186 2.0 4.0 0.00 0.00 0.00 46 1016.4
20260901075003 89 190 2.0 6.0 0.00 0.00 0.00 46 1016.6
20260901074503 90 191 1.0 6.0 0.00 0.00 0.00 45 1016.4
20260901074003 90 190 1.0 3.0 0.00 0.00 0.00 45 1016.1
20260901073503 89 192 1.0 4.0 0.00 0.00 0.00 46 1016.4
20260901073004 89 189 1.0 4.0 0.00 0.00 0.00 46 1016.4
20260901072503 90 188 1.0 3.0 0.00 0.00 0.00 46 1016.3
20260901072214 89 191 1.0 3.0 0.00 0.00 0.00 46 1016.4
20260901071503 89 199 2.0 4.0 0.00 0.00 0.00 47 1016.3
20260901071215 88 199 2.0 4.0 0.00 0.00 0.00 47 1016.4
20260901070713 87 198 2.0 4.0 0.00 0.00 0.00 49 1016.4
20260901070216 88 191 2.0 4.0 0.00 0.00 0.00 49 1016.1
20260901065503 87 195 1.0 4.0 0.00 0.00 0.00 51 1016.3
20260901065003 88 190 1.0 2.0 0.00 0.00 0.00 51 1016.3
20260901064503 89 175 0.0 3.0 0.00 0.00 0.00 52 1016.1
20260901064004 89 169 0.0 3.0 0.00 0.00 0.00 54 1016.3
20260901063503 88 195 1.0 2.0 0.00 0.00 0.00 52 1016.3
20260901063214 87 193 1.0 2.0 0.00 0.00 0.00 54 1016.3
20260901062503 88 183 1.0 2.0 0.00 0.00 0.00 56 1016.3
20260901062004 87 180 1.0 2.0 0.00 0.00 0.00 56 1016.2
20260901061503 88 172 0.0 2.0 0.00 0.00 0.00 54 1016.0
20260901061003 87 158 0.0 1.0 0.00 0.00 0.00 54 1016.3
20260901060504 87 57 0.0 3.0 0.00 0.00 0.00 56 1016.2
20260901060003 86 28 0.0 3.0 0.00 0.00 0.00 58 1016.1
20260901055504 86 134 0.0 1.0 0.00 0.00 0.00 61 1016.4
20260901055003 85 148 0.0 2.0 0.00 0.00 0.00 62 1016.3
20260901054504 85 144 0.0 2.0 0.00 0.00 0.00 64 1016.1
20260901054004 84 166 0.0 1.0 0.00 0.00 0.00 66 1016.1
20260901053504 83 175 0.0 1.0 0.00 0.00 0.00 68 1016.2
20260901053004 83 161 0.0 1.0 0.00 0.00 0.00 68 1016.3
20260901052503 82 149 0.0 1.0 0.00 0.00 0.00 69 1016.3
20260901052004 82 155 0.0 1.0 0.00 0.00 0.00 70 1016.3
20260901051713 82 163 0.0 1.0 0.00 0.00 0.00 71 1016.3
20260901051003 81 172 0.0 1.0 0.00 0.00 0.00 72 1016.0
20260901050504 80 174 0.0 0.0 0.00 0.00 0.00 73 1016.1
20260901050003 79 181 0.0 1.0 0.00 0.00 0.00 73 1016.1
20260901045504 79 177 0.0 1.0 0.00 0.00 0.00 74 1016.1
20260901045003 78 171 0.0 1.0 0.00 0.00 0.00 74 1016.0
20260901044506 78 173 0.0 1.0 0.00 0.00 0.00 75 1016.1
20260901044004 78 180 0.0 1.0 0.00 0.00 0.00 75 1016.1
20260901043503 78 189 0.0 2.0 0.00 0.00 0.00 75 1016.0
20260901043003 78 183 0.0 2.0 0.00 0.00 0.00 75 1016.0
20260901042504 78 180 0.0 1.0 0.00 0.00 0.00 75 1015.8
20260901042216 78 187 0.0 1.0 0.00 0.00 0.00 75 1015.9
20260901041503 78 175 0.0 1.0 0.00 0.00 0.00 74 1015.7
20260901041004 78 177 0.0 1.0 0.00 0.00 0.00 74 1015.5
20260901040504 78 182 0.0 1.0 0.00 0.00 0.00 73 1015.4
20260901040004 78 187 0.0 1.0 0.00 0.00 0.00 74 1015.3
20260901035716 78 190 0.0 1.0 0.00 0.00 0.00 74 1015.4
20260901035004 78 184 0.0 1.0 0.00 0.00 0.00 73 1015.3
20260901034504 78 171 0.0 2.0 0.00 0.00 0.00 72 1015.2
20260901034004 78 173 0.0 2.0 0.00 0.00 0.00 72 1015.2
20260901033503 79 177 0.0 1.0 0.00 0.00 0.00 72 1015.4
20260901033216 79 176 0.0 1.0 0.00 0.00 0.00 71 1015.3
20260901032503 78 181 0.0 1.0 0.00 0.00 0.00 72 1015.2
20260901032217 78 190 0.0 1.0 0.00 0.00 0.00 72 1015.5
20260901031504 79 0 0.0 0.0 0.00 0.00 0.00 72 1015.4
20260901031003 79 0 0.0 0.0 0.00 0.00 0.00 72 1015.4
20260901030503 79 186 0.0 0.0 0.00 0.00 0.00 71 1015.4
20260901030004 80 177 0.0 2.0 0.00 0.00 0.00 71 1015.3
20260901025504 80 193 0.0 2.0 0.00 0.00 0.00 70 1015.5
20260901025003 80 352 0.0 2.0 0.00 0.00 0.00 70 1015.4
20260901024504 80 43 0.0 2.0 0.00 0.00 0.00 70 1015.6
20260901024004 80 43 0.0 2.0 0.00 0.00 0.00 70 1015.7
20260901023504 80 12 1.0 5.0 0.00 0.00 0.00 70 1015.6
20260901023003 80 13 2.0 6.0 0.00 0.00 0.00 70 1015.8
20260901022714 80 7 3.0 8.0 0.00 0.00 0.00 70 1015.7
20260901022003 80 352 3.0 8.0 0.00 0.00 0.00 69 1015.8
20260901021504 79 334 1.0 4.0 0.00 0.00 0.00 70 1015.8
20260901021004 80 268 0.0 2.0 0.00 0.00 0.00 74 1015.7
20260901020716 79 260 0.0 1.0 0.00 0.00 0.00 74 1015.8
20260901020003 80 233 0.0 2.0 0.00 0.00 0.00 74 1015.8
20260901015503 80 230 0.0 2.0 0.00 0.00 0.00 75 1015.8
20260901015003 80 197 0.0 1.0 0.00 0.00 0.00 76 1015.9
20260901014503 80 213 0.0 1.0 0.00 0.00 0.00 76 1016.0
20260901014003 80 248 0.0 1.0 0.00 0.00 0.00 77 1015.9
20260901013504 80 247 0.0 0.0 0.00 0.00 0.00 77 1015.8
20260901013217 80 223 0.0 1.0 0.00 0.00 0.00 77 1015.6
20260901012503 80 244 0.0 1.0 0.00 0.00 0.00 78 1015.8
20260901012213 80 251 0.0 2.0 0.00 0.00 0.00 78 1016.0
20260901011504 80 258 0.0 2.0 0.00 0.00 0.00 79 1015.9
20260901011003 80 278 0.0 1.0 0.00 0.00 0.00 79 1015.9
20260901010504 80 0 0.0 0.0 0.00 0.00 0.00 79 1015.8
20260901010003 80 0 0.0 0.0 0.00 0.00 0.00 79 1015.8
20260901005504 80 0 0.0 0.0 0.00 0.00 0.00 79 1015.9
20260901005216 80 0 0.0 0.0 0.00 0.00 0.00 79 1016.1
20260901004504 80 186 0.0 1.0 0.00 0.00 0.00 78 1015.7
20260901004003 80 187 0.0 1.0 0.00 0.00 0.00 78 1015.7
20260901003504 80 180 0.0 1.0 0.00 0.00 0.00 78 1015.7
20260901003003 80 179 0.0 1.0 0.00 0.00 0.00 78 1016.0
20260901002504 81 167 0.0 1.0 0.00 0.00 0.00 78 1016.1
20260901002004 81 173 0.0 1.0 0.00 0.00 0.00 78 1016.2
20260901001716 81 168 0.0 2.0 0.00 0.00 0.00 78 1016.2
20260901001214 81 172 1.0 2.0 0.00 0.00 0.00 78 1016.3
20260901000503 81 182 0.0 1.0 0.00 0.00 0.00 78 1016.3
20260901000005 81 176 0.0 1.0 0.00 0.00 0.00 78 1016.4
20260831235504 82 178 0.0 1.0 0.00 0.00 0.00 77 1016.4
20260831235216 82 182 0.0 1.0 0.00 0.00 0.00 77 1016.4
20260831234503 82 188 0.0 1.0 0.00 0.00 0.00 74 1016.5
20260831234003 82 168 0.0 1.0 0.00 0.00 0.00 71 1016.4
20260831233503 81 172 0.0 1.0 0.00 0.00 0.00 69 1016.2
20260831233003 81 177 0.0 1.0 0.00 0.00 0.00 70 1016.3
20260831232716 81 197 0.0 1.0 0.00 0.00 0.00 74 1016.3
20260831232003 82 0 0.0 0.0 0.00 0.00 0.00 77 1016.1
20260831231504 82 0 0.0 0.0 0.00 0.00 0.00 77 1015.9
20260831230717 82 0 0.0 0.0 0.00 0.00 0.00 77 1015.7
20260831230004 82 0 0.0 0.0 0.00 0.00 0.00 76 1016.0
20260831225503 82 208 0.0 0.0 0.00 0.00 0.00 76 1015.9
20260831225004 82 204 0.0 1.0 0.00 0.00 0.00 76 1015.9
20260831224504 82 189 0.0 1.0 0.00 0.00 0.00 76 1015.8
20260831224217 82 162 0.0 1.0 0.00 0.00 0.00 76 1015.6
20260831223715 82 143 0.0 3.0 0.00 0.00 0.00 76 1015.7
20260831223003 82 21 0.0 2.0 0.00 0.00 0.00 76 1015.6
20260831222503 82 277 0.0 1.0 0.00 0.00 0.00 77 1015.7
20260831222003 82 272 0.0 1.0 0.00 0.00 0.00 76 1015.7
20260831221504 82 192 0.0 1.0 0.00 0.00 0.00 76 1015.9
20260831221003 82 188 0.0 1.0 0.00 0.00 0.00 76 1015.7
20260831220504 82 184 0.0 1.0 0.00 0.00 0.00 75 1015.8
20260831220221 82 186 0.0 1.0 0.00 0.00 0.00 75 1015.8
20260831215503 82 179 0.0 1.0 0.00 0.00 0.00 76 1015.7
20260831215217 82 180 0.0 1.0 0.00 0.00 0.00 76 1015.8
20260831214504 82 264 0.0 2.0 0.00 0.00 0.00 77 1015.7
20260831214218 82 260 0.0 2.0 0.00 0.00 0.00 77 1015.7
20260831213716 82 269 0.0 2.0 0.00 0.00 0.00 77 1015.7
20260831213214 82 279 0.0 1.0 0.00 0.00 0.00 77 1015.9
20260831212717 82 310 0.0 2.0 0.00 0.00 0.00 77 1015.7
20260831212004 83 170 0.0 2.0 0.00 0.00 0.00 77 1015.8
20260831211718 83 172 0.0 1.0 0.00 0.00 0.00 77 1015.6
20260831211004 83 177 0.0 2.0 0.00 0.00 0.00 77 1015.6
20260831210503 83 173 1.0 2.0 0.00 0.00 0.00 77 1015.6
20260831210004 83 168 1.0 2.0 0.00 0.00 0.00 77 1015.4
20260831205714 83 169 1.0 2.0 0.00 0.00 0.00 77 1015.5
20260831205003 83 172 1.0 1.0 0.00 0.00 0.00 77 1015.5
20260831204503 83 166 1.0 2.0 0.00 0.00 0.00 77 1015.3
20260831204004 83 165 0.0 2.0 0.00 0.00 0.00 76 1015.4
20260831203508 83 185 0.0 2.0 0.00 0.00 0.00 76 1015.5
20260831203003 84 180 1.0 2.0 0.00 0.00 0.00 75 1015.5
20260831202504 84 175 1.0 2.0 0.00 0.00 0.00 75 1015.3
20260831202004 84 175 1.0 2.0 0.00 0.00 0.00 75 1015.4
20260831201504 84 174 1.0 1.0 0.00 0.00 0.00 75 1015.3
20260831201004 84 167 0.0 2.0 0.00 0.00 0.00 75 1015.4
20260831200503 84 169 1.0 2.0 0.00 0.00 0.00 75 1015.3
20260831200004 84 168 1.0 2.0 0.00 0.00 0.00 75 1015.2
20260831195503 84 161 1.0 2.0 0.00 0.00 0.00 76 1015.1
20260831195003 84 167 0.0 1.0 0.00 0.00 0.00 76 1015.3
20260831194503 84 171 0.0 2.0 0.00 0.00 0.00 76 1015.2
20260831194003 84 171 0.0 2.0 0.00 0.00 0.00 75 1015.1
20260831193504 84 175 0.0 1.0 0.00 0.00 0.00 75 1015.0
20260831193004 85 179 0.0 1.0 0.00 0.00 0.00 75 1015.2
20260831192503 84 182 0.0 1.0 0.00 0.00 0.00 75 1015.3
20260831192004 84 184 0.0 1.0 0.00 0.00 0.00 75 1015.0
20260831191503 84 189 0.0 1.0 0.00 0.00 0.00 75 1015.2
20260831191003 85 180 0.0 1.0 0.00 0.00 0.00 75 1015.2
20260831190715 85 179 0.0 1.0 0.00 0.00 0.00 74 1014.9
20260831190004 85 180 0.0 1.0 0.00 0.00 0.00 74 1015.2
20260831185504 85 162 0.0 1.0 0.00 0.00 0.00 74 1015.3
20260831185004 85 183 0.0 1.0 0.00 0.00 0.00 74 1015.1
20260831184503 85 187 0.0 1.0 0.00 0.00 0.00 73 1015.0
20260831184004 85 175 0.0 1.0 0.00 0.00 0.00 73 1014.8
20260831183503 85 164 0.0 1.0 0.00 0.00 0.00 72 1014.9
20260831183003 86 151 0.0 1.0 0.00 0.00 0.00 72 1014.9
20260831182504 86 192 1.0 3.0 0.00 0.00 0.00 72 1014.5
20260831182004 86 190 1.0 3.0 0.00 0.00 0.00 71 1014.6
20260831181503 86 190 1.0 2.0 0.00 0.00 0.00 71 1014.5
20260831181003 86 195 1.0 1.0 0.00 0.00 0.00 71 1014.4
20260831180503 86 196 1.0 2.0 0.00 0.00 0.00 71 1014.4
20260831180004 86 194 1.0 2.0 0.00 0.00 0.00 71 1014.5
20260831175503 86 194 1.0 2.0 0.00 0.00 0.00 71 1014.4
20260831175004 86 157 2.0 4.0 0.00 0.00 0.00 71 1014.3
20260831174505 86 142 4.0 4.0 0.00 0.00 0.00 70 1014.4
20260831174003 86 144 3.0 4.0 0.00 0.00 0.00 69 1014.2
20260831173503 86 169 1.0 4.0 0.00 0.00 0.00 69 1014.2
20260831173003 86 197 1.0 2.0 0.00 0.00 0.00 69 1014.2
20260831172503 87 194 0.0 2.0 0.00 0.00 0.00 69 1014.4
20260831172003 86 169 0.0 2.0 0.00 0.00 0.00 68 1014.3
20260831171504 86 172 0.0 2.0 0.00 0.00 0.00 68 1014.4
20260831171213 86 167 1.0 2.0 0.00 0.00 0.00 68 1014.4
20260831170504 86 131 1.0 3.0 0.00 0.00 0.00 69 1014.3
20260831170004 86 117 2.0 3.0 0.00 0.00 0.00 69 1014.3
20260831165503 86 105 2.0 5.0 0.00 0.00 0.00 66 1014.3
20260831165004 86 87 3.0 5.0 0.00 0.00 0.00 66 1014.3
20260831164718 86 86 4.0 5.0 0.00 0.00 0.00 66 1014.2
20260831164004 87 89 5.0 7.0 0.00 0.00 0.00 65 1014.4
20260831163503 87 86 3.0 7.0 0.00 0.00 0.00 65 1014.3
20260831163003 87 83 3.0 5.0 0.00 0.00 0.00 62 1014.6
20260831162504 87 87 4.0 9.0 0.00 0.00 0.00 62 1014.5
20260831162003 87 94 3.0 9.0 0.00 0.00 0.00 61 1014.5
20260831161504 87 95 2.0 7.0 0.00 0.00 0.00 62 1014.4
20260831161003 88 93 3.0 6.0 0.00 0.00 0.00 60 1014.4
20260831160717 88 94 4.0 6.0 0.00 0.00 0.00 60 1014.5
20260831160215 88 82 5.0 8.0 0.00 0.00 0.00 57 1014.3
20260831155503 89 77 6.0 10.0 0.00 0.00 0.00 56 1014.5
20260831155004 89 84 7.0 13.0 0.00 0.00 0.00 55 1014.4
20260831154504 89 93 7.0 13.0 0.00 0.00 0.00 56 1014.4
20260831154003 89 92 6.0 15.0 0.00 0.00 0.00 56 1014.6
20260831153504 88 71 5.0 15.0 0.00 0.00 0.00 55 1014.5
20260831153005 89 73 5.0 8.0 0.00 0.00 0.00 53 1014.4
20260831152504 89 76 7.0 11.0 0.00 0.00 0.00 53 1014.6
20260831152003 89 78 6.0 11.0 0.00 0.00 0.00 52 1014.4
20260831151504 89 99 3.0 9.0 0.00 0.00 0.00 52 1014.3
20260831151004 89 55 5.0 10.0 0.00 0.00 0.00 54 1014.5
20260831150504 89 22 8.0 10.0 0.00 0.00 0.00 53 1014.6
20260831150215 89 21 10.0 13.0 0.00 0.00 0.00 49 1014.6
20260831145503 89 71 10.0 13.0 0.00 0.00 0.00 49 1014.4
20260831145004 89 76 10.0 12.0 0.00 0.00 0.00 51 1014.3
20260831144714 89 70 10.0 14.0 0.00 0.00 0.00 51 1014.5
20260831144004 89 71 11.0 14.0 0.00 0.00 0.00 51 1014.3
20260831143503 89 70 7.0 14.0 0.00 0.00 0.00 53 1014.7
20260831143213 89 66 5.0 14.0 0.00 0.00 0.00 53 1014.6
20260831142503 89 62 3.0 13.0 0.00 0.00 0.00 54 1014.4
20260831142003 90 65 3.0 8.0 0.00 0.00 0.00 54 1014.5
20260831141503 89 70 2.0 9.0 0.00 0.00 0.00 54 1014.3
20260831141004 90 95 3.0 9.0 0.00 0.00 0.00 53 1014.5
20260831140713 90 96 3.0 7.0 0.00 0.00 0.00 53 1014.5
20260831140216 90 92 4.0 13.0 0.00 0.00 0.00 54 1014.5
20260831135714 90 93 7.0 13.0 0.00 0.00 0.00 54 1014.4
20260831135004 89 94 9.0 13.0 0.00 0.00 0.00 52 1014.5
20260831134503 89 91 6.0 13.0 0.00 0.00 0.00 52 1014.4
20260831134004 91 118 3.0 11.0 0.00 0.00 0.00 54 1014.5
20260831133716 91 130 4.0 11.0 0.00 0.00 0.00 53 1014.6
20260831133214 91 116 4.0 9.0 0.00 0.00 0.00 52 1014.5
20260831132504 90 108 3.0 8.0 0.00 0.00 0.00 54 1014.6
20260831132004 90 105 4.0 9.0 0.00 0.00 0.00 52 1014.5
20260831131713 90 89 3.0 9.0 0.00 0.00 0.00 54 1014.6
20260831131004 91 92 5.0 10.0 0.00 0.00 0.00 54 1014.6
20260831130503 91 88 9.0 10.0 0.00 0.00 0.00 54 1014.6
20260831130004 90 87 9.0 11.0 0.00 0.00 0.00 53 1014.6
20260831125504 90 85 9.0 11.0 0.00 0.00 0.00 53 1014.5
20260831125003 90 87 8.0 13.0 0.00 0.00 0.00 52 1014.8
20260831124504 90 91 4.0 13.0 0.00 0.00 0.00 52 1014.7
20260831124003 91 125 3.0 9.0 0.00 0.00 0.00 51 1014.6
20260831123504 91 148 4.0 9.0 0.00 0.00 0.00 53 1014.6
20260831123003 91 149 3.0 10.0 0.00 0.00 0.00 52 1014.7